College Park, MD

5:52 PM EST on February 23, 2018 (GMT -0500)
College Park

Weather History for KCGS - February, 2013

Change the Weather History Date:

Friday, February 8, 2013

  Actual Average Record
Temperature  
Mean Temperature 38 °F -  
Max Temperature 44 °F 39 °F 69 °F (2009)
Min Temperature 34 °F 23 °F -4 °F (1967)
Degree Days  
Heating Degree Days 26    
Moisture  
Dew Point 35 °F    
Average Humidity 85    
Maximum Humidity 100    
Minimum Humidity 58    
Precipitation  
Precipitation 0.00 in - - ()
Sea Level Pressure  
Sea Level Pressure 29.91 in    
Wind  
Wind Speed 6 mph (NNW)    
Max Wind Speed 24 mph    
Max Gust Speed 38 mph    
Visibility 8 miles    
Events      
Averages and records for this station are not official NWS values.
T = Trace of Precipitation, MM = Missing Value Source: NWS Daily Summary

Daily Weather History Graph

Daily Weather History Graph

Search for Another Location

Airport or City:

Trip Planner

Search our weather history database for the weather conditions in past years. The results will help you decide how hot, cold, wet, or windy it might be!

Date:

Astronomy

Feb. 08, 2013 Rise Set
Actual Time 7:06 AM EST 5:37 PM EST
Civil Twilight 6:39 AM EST 6:05 PM EST
Nautical Twilight 6:07 AM EST 6:36 PM EST
Astronomical Twilight 5:36 AM EST 7:07 PM EST
Moon 5:33 AM EST (2/8) 4:08 PM EST (2/8)
Length of Visible Light 11h 25m
Length of Day
10h 30m
Waning Crescent, 3% of the Moon is Illuminated
Feb 8
Waning Crescent
Feb 10
New
Feb 17
First Quarter
Feb 25
Full
Mar 4
Last Quarter

Hourly Weather History & Observations

Time (EST) Temp. Windchill Dew Point Humidity Pressure Visibility Wind Dir Wind Speed Gust Speed Precip Events Conditions
12:00 AM 36.7 °F 34.1 °F 29.1 °F 74% 30.22 in 10.0 mi ENE 3.5 mph - N/A   Overcast
12:20 AM 36.7 °F 32.0 °F 28.9 °F 74% 30.21 in 10.0 mi NE 5.8 mph - N/A   Overcast
12:40 AM 36.5 °F 33.9 °F 28.8 °F 74% 30.20 in 10.0 mi NE 3.5 mph - N/A   Overcast
1:00 AM 36.3 °F 33.7 °F 28.4 °F 73% 30.18 in 10.0 mi NE 3.5 mph - N/A   Overcast
1:20 AM 36.3 °F 33.7 °F 28.4 °F 73% 30.18 in 10.0 mi NNE 3.5 mph - N/A   Overcast
1:40 AM 36.1 °F 32.3 °F 28.4 °F 73% 30.17 in 10.0 mi NE 4.6 mph - N/A   Overcast
2:00 AM 36.1 °F 33.5 °F 28.4 °F 73% 30.16 in 10.0 mi NNE 3.5 mph - N/A   Overcast
2:20 AM 36.0 °F - 29.1 °F 76% 30.14 in 10.0 mi Calm Calm - N/A   Overcast
2:40 AM 35.6 °F 32.8 °F 30.2 °F 81% 30.13 in 10.0 mi NNE 3.5 mph - N/A   Overcast
3:00 AM 35.2 °F - 32.0 °F 88% 30.12 in 10.0 mi Calm Calm - N/A   Mostly Cloudy
3:20 AM 35.1 °F - 32.2 °F 89% 30.11 in 10.0 mi Calm Calm - N/A   Mostly Cloudy
3:40 AM 34.9 °F - 32.5 °F 91% 30.10 in 7.0 mi Calm Calm - N/A   Mostly Cloudy
3:55 AM 34.7 °F - 32.9 °F 93% 30.09 in 7.0 mi Calm Calm - N/A   Mostly Cloudy
4:40 AM 34.7 °F - 33.8 °F 97% 30.07 in 7.0 mi Calm Calm - N/A   Overcast
5:00 AM 34.7 °F - 34.2 °F 98% 30.07 in 7.0 mi Calm Calm - N/A   Overcast
5:20 AM 35.1 °F 31.0 °F 34.9 °F 99% 30.05 in 7.0 mi North 4.6 mph - N/A   Overcast
5:40 AM 35.2 °F 31.2 °F 35.2 °F 100% 30.03 in 7.0 mi North 4.6 mph - N/A   Mostly Cloudy
6:00 AM 35.6 °F 32.8 °F 35.6 °F 100% 30.02 in 7.0 mi North 3.5 mph - N/A   Mostly Cloudy
7:00 AM 36.5 °F 31.8 °F 36.5 °F 100% 29.99 in 7.0 mi North 5.8 mph - N/A   Mostly Cloudy
7:20 AM 36.9 °F 33.1 °F 36.9 °F 100% 29.99 in 7.0 mi North 4.6 mph - N/A   Overcast
7:40 AM 37.4 °F 34.9 °F 37.4 °F 100% 29.98 in 5.0 mi North 3.5 mph - N/A   Overcast
9:10 AM 39.2 °F 34.2 °F 39.2 °F 100% 29.91 in 7.0 mi North 6.9 mph - N/A   Overcast
9:30 AM 39.4 °F 33.8 °F 39.4 °F 100% 29.90 in 7.0 mi North 8.1 mph - N/A   Overcast
9:50 AM 39.7 °F 34.3 °F 39.6 °F 99% 29.89 in 7.0 mi North 8.1 mph - N/A   Overcast
10:10 AM 40.5 °F 34.6 °F 40.3 °F 99% 29.87 in 10.0 mi North 9.2 mph - N/A   Overcast
10:30 AM 41.2 °F 36.6 °F 41.0 °F 99% 29.86 in 10.0 mi North 6.9 mph - N/A   Overcast
10:50 AM 41.2 °F 36.6 °F 40.5 °F 97% 29.86 in 10.0 mi North 6.9 mph - N/A   Overcast
11:05 AM 41.9 °F 39.0 °F 41.2 °F 97% 29.85 in 3.0 mi North 4.6 mph - N/A   Overcast
11:30 AM 42.3 °F 38.6 °F 42.1 °F 99% 29.84 in 7.0 mi NNW 5.8 mph - N/A   Overcast
11:50 AM 42.4 °F 37.5 °F 41.4 °F 96% 29.83 in 10.0 mi North 8.1 mph - N/A   Overcast
12:10 PM 42.8 °F 38.6 °F 42.1 °F 97% 29.81 in 4.0 mi North 6.9 mph - N/A   Overcast
12:30 PM 43.2 °F 37.0 °F 42.3 °F 97% 29.80 in 5.0 mi North 11.5 mph - N/A   Overcast
12:50 PM 43.7 °F 39.7 °F 42.3 °F 95% 29.80 in 10.0 mi NW 6.9 mph - N/A   Overcast
1:10 PM 43.0 °F 38.2 °F 41.2 °F 93% 29.78 in 7.0 mi NNW 8.1 mph - N/A   Overcast
1:30 PM 42.6 °F 38.4 °F 40.8 °F 93% 29.77 in 5.0 mi NNW 6.9 mph - N/A   Overcast
1:50 PM 42.6 °F 36.8 °F 41.0 °F 94% 29.76 in 5.0 mi North 10.4 mph - N/A   Overcast
2:10 PM 43.0 °F 38.8 °F 41.0 °F 93% 29.76 in 7.0 mi NNW 6.9 mph - N/A   Overcast
2:30 PM 43.2 °F 37.4 °F 40.6 °F 91% 29.76 in 7.0 mi NW 10.4 mph - N/A   Overcast
2:50 PM 43.0 °F 38.8 °F 40.3 °F 90% 29.75 in 7.0 mi NW 6.9 mph - N/A   Overcast
3:10 PM 43.0 °F 37.7 °F 40.1 °F 90% 29.75 in 7.0 mi NNW 9.2 mph - N/A   Overcast
3:30 PM 42.8 °F 38.6 °F 40.1 °F 90% 29.76 in 7.0 mi NW 6.9 mph - N/A   Overcast
3:50 PM 42.3 °F 35.1 °F 39.6 °F 90% 29.77 in 5.0 mi NW 13.8 mph 17.3 mph N/A   Overcast
4:10 PM 41.5 °F 36.4 °F 39.2 °F 91% 29.77 in 4.0 mi NW 8.1 mph - N/A   Overcast
4:30 PM 41.5 °F 36.4 °F 39.2 °F 91% 29.77 in 4.0 mi NW 8.1 mph - N/A   Overcast
4:50 PM 41.9 °F 39.0 °F 39.9 °F 93% 29.77 in 5.0 mi NNW 4.6 mph - N/A   Overcast
5:10 PM 41.7 °F 38.8 °F 39.4 °F 91% 29.78 in 5.0 mi NW 4.6 mph - N/A   Overcast
5:30 PM 42.1 °F 38.4 °F 39.6 °F 91% 29.79 in 7.0 mi WNW 5.8 mph - N/A   Overcast
5:50 PM 42.1 °F 40.2 °F 39.4 °F 90% 29.78 in 7.0 mi WNW 3.5 mph - N/A   Overcast
6:30 PM 42.3 °F 37.3 °F 38.1 °F 85% 29.79 in 10.0 mi WNW 8.1 mph 16.1 mph N/A   Mostly Cloudy
6:50 PM 41.9 °F 37.5 °F 37.9 °F 86% 29.80 in 10.0 mi NW 6.9 mph - N/A   Scattered Clouds
7:10 PM 42.1 °F 36.1 °F 37.6 °F 84% 29.80 in 10.0 mi WNW 10.4 mph - N/A   Scattered Clouds
7:30 PM 42.4 °F 40.7 °F 37.4 °F 82% 29.80 in 10.0 mi NNW 3.5 mph - N/A   Mostly Cloudy
7:50 PM 43.3 °F 38.1 °F 36.5 °F 77% 29.81 in 10.0 mi WNW 9.2 mph 17.3 mph N/A   Overcast
8:15 PM 43.9 °F 37.5 °F 32.2 °F 63% 29.82 in 10.0 mi WNW 12.7 mph 25.3 mph N/A   Overcast
8:35 PM 43.2 °F 37.4 °F 31.3 °F 63% 29.84 in 10.0 mi NW 10.4 mph 19.6 mph N/A   Overcast
8:55 PM 42.8 °F 34.8 °F 29.7 °F 60% 29.85 in 10.0 mi NW 17.3 mph 28.8 mph N/A   Overcast
9:15 PM 42.1 °F 33.6 °F 28.6 °F 59% 29.86 in 10.0 mi WNW 18.4 mph 32.2 mph N/A   Overcast
9:35 PM 41.4 °F 34.0 °F 28.4 °F 60% 29.86 in 10.0 mi WNW 13.8 mph 28.8 mph N/A   Overcast
9:55 PM 40.3 °F 31.9 °F 27.0 °F 59% 29.87 in 10.0 mi NW 16.1 mph 29.9 mph N/A   Overcast
10:15 PM 39.7 °F 31.9 °F 26.6 °F 59% 29.88 in 10.0 mi WNW 13.8 mph 23.0 mph N/A   Overcast
10:35 PM 39.2 °F 30.2 °F 25.7 °F 58% 29.88 in 10.0 mi NW 17.3 mph 33.4 mph N/A   Mostly Cloudy
10:55 PM 38.7 °F 31.4 °F 26.1 °F 61% 29.89 in 10.0 mi NNW 11.5 mph 20.7 mph N/A   Overcast
11:15 PM 38.3 °F 31.4 °F 26.1 °F 61% 29.90 in 10.0 mi NW 10.4 mph 19.6 mph N/A   Overcast
11:35 PM 38.3 °F 27.3 °F 24.6 °F 58% 29.90 in 10.0 mi WNW 24.2 mph 38.0 mph N/A   Mostly Cloudy
11:55 PM 37.6 °F 30.5 °F 24.4 °F 59% 29.92 in 10.0 mi NW 10.4 mph 24.2 mph N/A   Mostly Cloudy